Über Anokhin S.N.
Group: 3 satellites
Beschreibung wird geladen...
Live-Position
3D-Globus wird geladen...
Nächste Überflüge
Höhenverlauf
Altitude vs Time
uPlot chart will show altitude changes over time
Zweizeiliger Elementsatz
1 57193U 23091AD 26062.18415303 .00017440 00000-0 61806-3 0 9991
2 57193 97.5189 126.4045 0012601 113.3507 246.9060 15.29091615148232
Epoch: 3. März 2026 •
Age: 30 hours
Aktueller Status
Höhe 477.7 km
Geschwindigkeit 7.64 km/s
Subsatellitenpunkt 46.71°N,
61.57°E
Startdatum 27. Juni 2023
Alter 2.6 years
Typ other
Technische Details
Klassifizierung Payload
Masse 3.00 kg
Trockenmasse 3.00 kg
Gesamtmasse 3.00 kg
Länge 0.30 m
Durchmesser 0.10 m
Spannweite 0.30 m
Form Box
Hersteller SPUT
Bus-Typ Cubesat 3U
Phasenstatus In Orbit
Besitzer/Staat SITRO/RU
Große Konstellationen
Loading constellations...